Regional Weather Roundup
Issued by NWS

Home | Current Version | Previous Version | Text Only | Print | Product List | Glossary Off
Versions: 1 2 3 4 5 6 7 8 9 10 11 12 13 14 15 16 17 18 19 20 21 22 23 24 25 26 27 28 29 30 31 32 33 34 35 36 37 38 39 40 41 42 43 44 45 46 47 48 49 50

920
ASUS43 KOAX 180510
RWRNE

WEATHER ROUNDUP FOR NEBRASKA
NATIONAL WEATHER SERVICE OMAHA NE
1100 PM CST SAT FEB 17 2018

NOTES: SATELLITE DATA IS BEING USED TO AUGMENT CLOUD COVER ABOVE
       12000 FEET.
       "FAIR" INDICATES FEW OR NO CLOUDS BELOW 12,000 FEET WITH NO
       SIGNIFICANT WEATHER AND/OR OBSTRUCTIONS TO VISIBILITY.


NEZ001>004-019>022-054>056-180600-
NEBRASKA PANHANDLE

CITY           SKY/WX    TMP DP  RH WIND       PRES   REMARKS
SCOTTSBLUFF    PTCLDY    41  20  43 S15       29.69F
ALLIANCE       PTCLDY    38  18  44 S13       29.71F WCI  30
CHADRON        CLOUDY    40  24  53 S16G22    29.62F WCI  31
GORDON         FAIR      38  23  54 S20G25    29.67F WCI  28
KIMBALL        PTCLDY    40  14  34 S23G30    29.75F WCI  30
SIDNEY         PTCLDY    37  16  42 S20       29.78F WCI  27
$$

NEZ057>060-069>072-079>082-180600-
SOUTHWEST NEBRASKA

CITY           SKY/WX    TMP DP  RH WIND       PRES   REMARKS
NORTH PLATTE   CLEAR     38  19  46 SE9       29.87F WCI  31
IMPERIAL       CLEAR     36  20  52 S15       29.87F WCI  27
LEXINGTON      CLEAR     36  23  59 S14       29.94F WCI  27
MCCOOK         CLEAR     37  18  46 S14       29.93F WCI  28
OGALLALA       CLEAR     40  21  47 S29G40    29.79F WCI  28
$$

NEZ005>010-023>029-035>040-094-180600-
NORTH CENTRAL NEBRASKA

CITY           SKY/WX    TMP DP  RH WIND       PRES   REMARKS
VALENTINE      MOCLDY    34  23  64 S14       29.80F WCI  25
AINSWORTH      PTCLDY    33  25  73 S22       29.83F WCI  20
BROKEN BOW     CLEAR     34  24  67 S14       29.92F WCI  25
O`NEILL        PTCLDY    31  26  83 SE12      29.93F WCI  21
ORD            CLEAR     31  25  78 SE6       29.95F WCI  25
THEDFORD       PTCLDY    36  24  61 S16G22    29.84F WCI  26
$$

NEZ041-046>049-061>064-073>077-083>087-180600-
SOUTH CENTRAL NEBRASKA

CITY           SKY/WX    TMP DP  RH WIND       PRES   REMARKS
GRAND ISLAND   CLEAR     34  24  67 SE15      30.02F WCI  24
AURORA         CLEAR     31  23  73 SE12      30.03F WCI  21
HASTINGS       CLEAR     33  21  61 S9        30.03F WCI  25
HEBRON         CLEAR     33  24  69 SE9       30.08F WCI  25
HOLDREGE       CLEAR     34  23  62 S14       29.98F WCI  25
KEARNEY        CLEAR     33  23  66 S15       29.98F WCI  23
YORK           CLEAR     32  25  74 SE10      30.05F WCI  24
$$

NEZ011>018-030>034-042>045-180600-
NORTHEAST NEBRASKA

CITY           SKY/WX    TMP DP  RH WIND       PRES   REMARKS
NORFOLK        CLEAR     28  25  88 SE10      30.01F WCI  19
ALBION         CLEAR     31  27  85 SE8       30.00F WCI  23
BLAIR          CLEAR     30  26  83 SE6       30.08F WCI  24
COLUMBUS       CLEAR     31  27  85 SE10      30.05F WCI  22
FREMONT        CLEAR     31  27  84 SE6       30.09F WCI  25
TEKAMAH        CLOUDY    28  26  92 S8        30.09F WCI  20
WAYNE          CLOUDY    25  24  96 S5        30.05S WCI  19
$$

NEZ050>053-065>068-078-088>093-180600-
SOUTHEAST NEBRASKA

CITY           SKY/WX    TMP DP  RH WIND       PRES   REMARKS
LINCOLN        CLEAR     26  21  81 CALM      30.10F
OMAHA EPPLEY   CLEAR     27  23  85 SE5       30.11F WCI  22
BEATRICE       CLEAR     34  24  66 SE7       30.10F WCI  28
FALLS CITY     CLEAR     30  19  63 SE5       30.15F WCI  25
NEBRASKA CITY  CLEAR     29  24  79 SE7       30.13F WCI  22
PLATTSMOUTH    CLEAR     30  25  80 SE7       30.11F WCI  23
$$

NEZ044-045-051>053-067-180600-
OMAHA AREA

CITY           SKY/WX    TMP DP  RH WIND       PRES   REMARKS
OMAHA EPPLEY   CLEAR     27  23  85 SE5       30.11F WCI  22
BLAIR          CLEAR     30  26  83 SE6       30.08F WCI  24
FREMONT        CLEAR     31  27  84 SE6       30.09F WCI  25
MILLARD        CLEAR     30  26  85 SE3       30.11F
OFFUTT AFB     CLEAR     21  19  93 CALM      30.11F
PLATTSMOUTH    CLEAR     30  25  80 SE7       30.11F WCI  23
WAHOO          FAIR      28  25  87 SE7       30.09F WCI  21
$$




USA.gov is the U.S. government's official web portal to all federal, state and local government web resources and services.